Weather History for El Dorado, AR

Change the Weather History Date:

Tuesday, November 6, 2012

  Actual Average Record
Temperature  
Mean Temperature 53 °F 57 °F  
Max Temperature 63 °F 69 °F 88 °F (1914)
Min Temperature 43 °F 45 °F 26 °F (1959)
Degree Days  
Heating Degree Days 12 9  
Month to date heating degree days 36 48  
Since 1 July heating degree days 203 181  
Cooling Degree Days 0 1  
Month to date cooling degree days 5 6  
Year to date cooling degree days 2276 2117  
Growing Degree Days 4 (Base 50)    
Moisture  
Dew Point 46 °F    
Average Humidity 74    
Maximum Humidity 100    
Minimum Humidity 48    
Precipitation  
Precipitation 0.00 in 0.15 in 2.19 in (1972)
Month to date precipitation 0.63 0.91  
Year to date precipitation 37.32 43.76  
Snow  
Snow 0.00 in - - ()
Month to date snowfall 0.0  
Since 1 July snowfall 0.0  
Since 1 September snowfall 0.0  
Snow Depth 0.00 in    
Sea Level Pressure  
Sea Level Pressure 30.07 in    
Wind  
Wind Speed 4 mph (NW)    
Max Wind Speed 13 mph    
Max Gust Speed 17 mph    
Visibility 7 miles    
Events Fog    
T = Trace of Precipitation, MM = Missing Value Source: NWS Daily Summary

Daily Weather History Graph

Daily Weather History Graph

Search for Another Location

Airport:

Trip Planner

Search our weather history database for the weather conditions in past years. The results will help you decide how hot, cold, wet, or windy it might be!

Date:

Astronomy

Nov. 06, 2012 Rise Set
Actual Time 6:34 AM CST 5:14 PM CST
Civil Twilight 6:08 AM CST 5:40 PM CST
Nautical Twilight 5:39 AM CST 6:10 PM CST
Astronomical Twilight 5:09 AM CST 6:39 PM CST
Moon 11:50 PM CST (11/6) 12:29 PM CST (11/6)
Length of Visible Light 11h 32m
Length of Day
10h 40m
Waning Gibbous, 53% of the Moon is Illuminated
Nov 6
Waning Gibbous
Nov 6
Last Quarter
Nov 13
New
Nov 20
First Quarter
Nov 28
Full

Hourly Weather History & Observations

Time (CST) Temp. Windchill Dew Point Humidity Pressure Visibility Wind Dir Wind Speed Gust Speed Precip Events Conditions
12:48 AM 48.2 °F - 46.4 °F 93% 30.03 in 2.5 mi NNW 11.5 mph - N/A   Mostly Cloudy
12:49 AM 48.0 °F - 46.9 °F 96% 30.03 in 2.0 mi NNW 12.7 mph - N/A   Mostly Cloudy
12:52 AM 48.2 °F - 46.4 °F 93% 30.03 in 0.8 mi NW 11.5 mph - N/A   Mostly Cloudy
1:05 AM 48.2 °F - 48.2 °F 100% 30.03 in 0.2 mi NW 9.2 mph - N/A Fog Fog
1:24 AM 48.2 °F - 48.2 °F 100% 30.03 in 0.8 mi NW 10.4 mph - N/A   Mist
1:30 AM 48.2 °F - 48.2 °F 100% 30.03 in 2.0 mi NNW 10.4 mph - N/A   Overcast
1:39 AM 48.2 °F - 48.2 °F 100% 30.04 in 4.0 mi NNW 8.1 mph - N/A   Overcast
1:53 AM 48.9 °F - 48.0 °F 97% 30.04 in 5.0 mi NNW 6.9 mph - N/A   Overcast
2:53 AM 48.9 °F - 48.0 °F 97% 30.04 in 4.0 mi NW 5.8 mph - N/A   Overcast
3:28 AM 48.2 °F - 48.2 °F 100% 30.04 in 2.5 mi NNW 3.5 mph - N/A   Overcast
3:36 AM 50.0 °F - 48.2 °F 94% 30.04 in 3.0 mi NNW 4.6 mph - N/A   Overcast
3:53 AM 50.0 °F - 48.9 °F 96% 30.05 in 4.0 mi NNW 5.8 mph - N/A   Overcast
4:53 AM 50.0 °F - 48.0 °F 93% 30.05 in 5.0 mi North 5.8 mph - N/A   Overcast
5:42 AM 48.2 °F - 48.2 °F 100% 30.06 in 5.0 mi NNW 4.6 mph - N/A   Overcast
5:53 AM 48.9 °F - 48.0 °F 97% 30.06 in 5.0 mi Calm Calm - N/A   Overcast
6:38 AM 48.2 °F - 46.4 °F 93% 30.09 in 6.0 mi WNW 5.8 mph - N/A   Overcast
6:53 AM 48.0 °F - 46.0 °F 93% 30.10 in 6.0 mi NW 5.8 mph - N/A   Overcast
7:12 AM 48.2 °F - 44.6 °F 87% 30.10 in 7.0 mi NW 6.9 mph - N/A   Overcast
7:53 AM 48.0 °F - 45.0 °F 89% 30.12 in 9.0 mi Calm Calm - N/A   Clear
8:53 AM 52.0 °F - 46.0 °F 80% 30.13 in 10.0 mi Calm Calm - N/A   Clear
9:53 AM 53.1 °F - 46.0 °F 77% 30.14 in 10.0 mi North 3.5 mph - N/A   Partly Cloudy
10:32 AM 55.4 °F - 44.6 °F 67% 30.14 in 10.0 mi NNW 4.6 mph - N/A   Mostly Cloudy
10:48 AM 55.4 °F - 44.6 °F 67% 30.14 in 10.0 mi Calm Calm - N/A   Scattered Clouds
10:53 AM 57.0 °F - 46.0 °F 67% 30.14 in 10.0 mi North 3.5 mph - N/A   Mostly Cloudy
11:06 AM 55.4 °F - 44.6 °F 67% 30.13 in 10.0 mi WNW 4.6 mph - N/A   Partly Cloudy
11:53 AM 60.1 °F - 44.1 °F 55% 30.10 in 10.0 mi Variable 4.6 mph - N/A   Mostly Cloudy
12:53 PM 60.1 °F - 43.0 °F 53% 30.08 in 10.0 mi West 4.6 mph - N/A   Partly Cloudy
1:53 PM 62.1 °F - 43.0 °F 50% 30.05 in 10.0 mi West 6.9 mph - N/A   Clear
2:53 PM 63.0 °F - 43.0 °F 48% 30.03 in 10.0 mi SW 4.6 mph - N/A   Clear
3:53 PM 62.1 °F - 43.0 °F 50% 30.02 in 10.0 mi West 4.6 mph - N/A   Clear
4:53 PM 59.0 °F - 45.0 °F 60% 30.03 in 10.0 mi West 4.6 mph - N/A   Clear
5:53 PM 52.0 °F - 46.9 °F 83% 30.04 in 10.0 mi Calm Calm - N/A   Clear
6:53 PM 48.9 °F - 46.0 °F 90% 30.05 in 10.0 mi Calm Calm - N/A   Clear
7:53 PM 46.9 °F - 46.0 °F 97% 30.06 in 10.0 mi Calm Calm - N/A   Clear
8:53 PM 46.0 °F - 44.1 °F 93% 30.06 in 10.0 mi Calm Calm - N/A   Clear
9:53 PM 45.0 °F - 43.0 °F 93% 30.07 in 10.0 mi Calm Calm - N/A   Clear
10:53 PM 46.0 °F 43.9 °F 43.0 °F 89% 30.08 in 10.0 mi NW 4.6 mph - N/A   Clear
11:53 PM 43.0 °F - 41.0 °F 93% 30.08 in 10.0 mi Calm Calm - N/A   Clear